EST,Max TemperatureF,Mean TemperatureF,Min TemperatureF,Max Dew PointF,MeanDew PointF,Min DewpointF,Max Humidity, Mean Humidity, Min Humidity, Max Sea Level PressureIn, Mean Sea Level PressureIn, Min Sea Level PressureIn, Max VisibilityMiles, Mean VisibilityMiles, Min VisibilityMiles, Max Wind SpeedMPH, Mean Wind SpeedMPH, Max Gust SpeedMPH,PrecipitationIn, CloudCover, Events, WindDirDegrees
2013-1-1,35,27,19,23,15,3,65,52,41,29.90,29.78,29.73,10,10,10,24,9,38,0.00,3,,271
2013-1-2,28,19,10,10,6,1,73,55,46,30.07,29.95,29.88,10,10,10,17,8,26,0.00,1,,292
2013-1-3,23,14,6,10,-1,-9,63,49,31,30.09,30.04,29.97,10,10,10,13,7,21,0.00,2,,285
2013-1-4,37,29,21,19,16,10,74,59,45,29.96,29.90,29.82,10,10,10,16,7,26,0.00,1,,245
2013-1-5,39,31,23,21,17,12,69,55,42,30.24,30.08,29.85,10,10,10,16,6,23,0.00,2,,259
2013-1-6,42,33,24,27,24,16,93,72,53,30.19,30.02,29.93,10,9,3,12,3,18,0.00,2,,240
2013-1-7,39,32,24,27,20,12,80,64,41,30.37,30.22,29.96,10,10,10,14,7,18,0.00,0,,295
2013-1-8,46,34,23,27,24,16,80,65,46,30.35,30.32,30.27,10,10,10,14,5,28,0.00,0,,225
2013-1-9,42,34,26,34,28,23,93,70,53,30.36,30.21,30.00,10,9,6,17,4,25,0.00,1,,222
2013-1-10,44,38,33,28,21,18,57,48,37,30.51,30.32,30.06,10,10,9,22,12,41,0.00,0,,303
2013-1-11,37,32,26,36,25,19,93,71,56,30.51,30.37,30.18,10,9,3,10,4,,0.14,3,,67
2013-1-12,42,40,37,39,37,36,93,90,87,30.18,30.14,30.11,7,1,0,9,4,,0.01,8,,98
2013-1-13,51,46,42,46,43,39,93,88,82,30.14,30.08,30.01,10,5,0,10,3,18,0.00,8,,206
2013-1-14,57,47,37,50,40,27,94,70,38,30.24,30.05,29.91,10,8,0,15,7,26,0.00,5,,266
2013-1-15,39,36,33,28,25,21,75,64,52,30.29,30.24,30.19,10,10,10,9,5,,0.03,2,,349
2013-1-16,33,32,30,30,27,21,93,84,60,30.22,29.96,29.78,10,4,0,10,5,,0.26,8,,20
2013-1-17,39,34,28,30,24,14,93,69,51,30.06,29.95,29.83,10,10,8,15,6,23,0.23,3,,282
2013-1-18,30,24,17,14,3,-2,55,43,31,30.43,30.25,30.01,10,10,10,17,10,24,0.00,2,,325
2013-1-19,44,32,19,28,22,3,70,55,43,30.35,30.12,29.89,10,10,10,15,8,32,0.00,2,,213
2013-1-20,53,40,26,30,23,5,70,49,33,29.91,29.74,29.57,10,10,10,23,11,37,0.00,0,,252
2013-1-21,26,22,17,19,9,3,86,56,37,30.07,29.95,29.77,10,8,2,16,8,24,0.00,3,,268
2013-1-22,21,16,12,18,4,-6,86,57,33,30.04,29.86,29.72,10,10,1,18,8,28,0.00,2,,294
2013-1-23,10,8,6,-2,-6,-8,57,52,48,30.11,30.06,30.03,10,10,10,15,9,21,0.00,0,,279
2013-1-24,,,,,,,,,,,,,,,,,,,,,,
2013-1-25,21,18,15,10,3,-2,79,52,36,30.10,30.05,30.01,10,8,2,5,3,,0.00,5,,282
2013-1-26,23,16,8,10,2,-6,92,57,33,30.21,30.04,29.95,10,10,4,16,8,25,0.00,1,,322
2013-1-27,28,19,10,3,0,-2,62,45,29,30.43,30.33,30.21,10,10,10,15,10,22,0.00,1,,300
2013-1-28,30,26,21,27,16,-2,93,68,34,30.42,30.17,29.98,10,5,0,8,4,,0.03,6,,135
2013-1-29,33,30,26,30,27,23,93,89,86,30.17,30.10,29.97,5,2,0,9,5,,0.08,8,,15
2013-1-30,59,46,33,54,47,30,94,90,82,30.12,29.78,29.51,10,5,0,16,6,31,0.06,8,,201
2013-1-31,60,45,30,55,32,9,88,61,34,29.59,29.29,29.01,10,9,3,25,17,52,0.66,5,,245